| time (UTC) | temp C | wind direction | speed KPH | gust KPH | rain 1hr cm | rain 24hr cm | rain mn cm | humidity % | barometer mb |
| 20260503184412 | 7 | 259 | 14.5 | 33.8 | 0.00 | 0.00 | 0.00 | 48 | 1006.1 |
| 20260503184123 | 7 | 273 | 14.5 | 41.8 | 0.00 | 0.00 | 0.00 | 50 | 1006.1 |
| 20260503183400 | 6 | 284 | 12.9 | 41.8 | 0.00 | 0.00 | 0.00 | 47 | 1006.1 |
| 20260503182850 | 7 | 290 | 9.7 | 37.0 | 0.00 | 0.00 | 0.00 | 49 | 1005.9 |
| 20260503182344 | 7 | 251 | 12.9 | 38.6 | 0.00 | 0.00 | 0.00 | 46 | 1006.0 |
| 20260503181838 | 7 | 229 | 12.9 | 38.6 | 0.00 | 0.00 | 0.00 | 46 | 1006.2 |
| 20260503181327 | 8 | 259 | 12.9 | 32.2 | 0.00 | 0.00 | 0.00 | 45 | 1006.1 |
| 20260503180821 | 8 | 267 | 14.5 | 32.2 | 0.00 | 0.00 | 0.00 | 46 | 1006.2 |
| 20260503180315 | 7 | 275 | 16.1 | 33.8 | 0.00 | 0.00 | 0.00 | 47 | 1006.1 |
| 20260503175814 | 7 | 291 | 16.1 | 37.0 | 0.00 | 0.00 | 0.00 | 49 | 1006.1 |
| 20260503175315 | 7 | 213 | 11.3 | 37.0 | 0.00 | 0.00 | 0.00 | 49 | 1006.1 |
| 20260503174815 | 7 | 268 | 11.3 | 35.4 | 0.00 | 0.00 | 0.00 | 50 | 1006.1 |
| 20260503174314 | 7 | 329 | 12.9 | 35.4 | 0.00 | 0.00 | 0.00 | 49 | 1006.2 |
| 20260503173813 | 7 | 323 | 12.9 | 25.7 | 0.00 | 0.00 | 0.00 | 51 | 1006.2 |
| 20260503172813 | 6 | 250 | 9.7 | 25.7 | 0.00 | 0.00 | 0.00 | 52 | 1006.5 |
| 20260503172316 | 6 | 242 | 8.0 | 25.7 | 0.00 | 0.00 | 0.00 | 52 | 1006.4 |
| 20260503171813 | 6 | 259 | 9.7 | 22.5 | 0.00 | 0.00 | 0.00 | 51 | 1006.4 |
| 20260503171313 | 6 | 303 | 9.7 | 20.9 | 0.00 | 0.00 | 0.00 | 48 | 1006.2 |
| 20260503170812 | 7 | 275 | 9.7 | 20.9 | 0.00 | 0.00 | 0.00 | 55 | 1006.4 |
| 20260503170313 | 6 | 217 | 8.0 | 20.9 | 0.00 | 0.00 | 0.00 | 55 | 1006.5 |
| 20260503150809 | 4 | 275 | 9.7 | 20.9 | 0.00 | 0.00 | 0.00 | 63 | 1007.4 |
| 20260503150308 | 4 | 227 | 9.7 | 20.9 | 0.00 | 0.00 | 0.00 | 62 | 1007.4 |
| 20260503131250 | 3 | 260 | 4.8 | 17.7 | 0.00 | 0.00 | 0.00 | 78 | 1007.8 |
| 20260503130749 | 3 | 265 | 6.4 | 17.7 | 0.00 | 0.00 | 0.00 | 80 | 1007.8 |
| 20260503130515 | 3 | 281 | 6.4 | 19.3 | 0.00 | 0.00 | 0.00 | 80 | 1007.9 |
| 20260503110202 | 1 | 254 | 9.7 | 24.1 | 0.00 | 0.00 | 0.00 | 85 | 1007.2 |
| 20260503100139 | 1 | 277 | 9.7 | 25.7 | 0.00 | 0.00 | 0.00 | 89 | 1006.9 |
| 20260503090304 | 1 | 293 | 4.8 | 20.9 | 0.00 | 0.00 | 0.00 | 88 | 1007.0 |
| 20260503081018 | 1 | 256 | 1.6 | 8.0 | 0.00 | 0.00 | 0.00 | 89 | 1007.6 |
| 20260503080516 | 1 | 299 | 1.6 | 4.8 | 0.00 | 0.00 | 0.00 | 88 | 1007.6 |
| 20260503072732 | 1 | 281 | 4.8 | 14.5 | 0.00 | 0.00 | 0.00 | 88 | 1007.7 |
| 20260503072008 | 1 | 254 | 4.8 | 19.3 | 0.00 | 0.00 | 0.00 | 88 | 1007.6 |
| 20260503071009 | 1 | 308 | 8.0 | 20.9 | 0.00 | 0.00 | 0.00 | 87 | 1007.7 |
| 20260503070506 | 1 | 295 | 8.0 | 20.9 | 0.00 | 0.03 | 0.00 | 87 | 1007.6 |
| 20260503070230 | 1 | 219 | 8.0 | 20.9 | 0.00 | 0.03 | 0.00 | 88 | 1007.6 |
| 20260503054959 | 1 | 0 | 6.4 | 19.3 | 0.00 | 0.18 | 0.00 | 86 | 1008.0 |
| 20260503054500 | 1 | 300 | 8.0 | 19.3 | 0.00 | 0.18 | 0.00 | 86 | 1008.0 |
| 20260503053959 | 1 | 311 | 8.0 | 19.3 | 0.00 | 0.20 | 0.00 | 86 | 1008.0 |
| 20260503053500 | 1 | 266 | 6.4 | 16.1 | 0.00 | 0.20 | 0.00 | 86 | 1008.1 |
| 20260503052958 | 1 | 255 | 6.4 | 17.7 | 0.00 | 0.20 | 0.00 | 85 | 1008.1 |
| 20260503052457 | 1 | 273 | 6.4 | 19.3 | 0.00 | 0.20 | 0.00 | 85 | 1008.1 |
| 20260503051958 | 1 | 273 | 6.4 | 19.3 | 0.00 | 0.20 | 0.00 | 85 | 1008.1 |
| 20260503051458 | 1 | 286 | 6.4 | 19.3 | 0.00 | 0.23 | 0.00 | 85 | 1008.2 |
| 20260503050958 | 1 | 280 | 6.4 | 16.1 | 0.00 | 0.23 | 0.00 | 85 | 1008.4 |
| 20260503050458 | 1 | 280 | 6.4 | 16.1 | 0.00 | 0.25 | 0.00 | 84 | 1008.4 |
| 20260503045958 | 1 | 254 | 6.4 | 16.1 | 0.00 | 0.25 | 0.00 | 84 | 1008.5 |
| 20260503045457 | 1 | 331 | 6.4 | 16.1 | 0.00 | 0.28 | 0.00 | 84 | 1008.5 |
| 20260503044958 | 1 | 300 | 4.8 | 20.9 | 0.00 | 0.30 | 0.00 | 84 | 1008.6 |
| 20260503044722 | 1 | 263 | 4.8 | 20.9 | 0.00 | 0.30 | 0.00 | 84 | 1008.6 |
| 20260503043957 | 1 | 213 | 4.8 | 12.9 | 0.00 | 0.33 | 0.00 | 84 | 1008.6 |
| 20260503043458 | 1 | 257 | 4.8 | 12.9 | 0.00 | 0.33 | 0.00 | 85 | 1008.6 |
| 20260503043227 | 1 | 277 | 4.8 | 14.5 | 0.00 | 0.33 | 0.00 | 85 | 1008.8 |
| 20260503042458 | 1 | 267 | 6.4 | 17.7 | 0.00 | 0.33 | 0.00 | 85 | 1008.7 |
| 20260503041957 | 1 | 340 | 6.4 | 17.7 | 0.00 | 0.36 | 0.00 | 85 | 1008.7 |
| 20260503041458 | 1 | 309 | 4.8 | 17.7 | 0.00 | 0.36 | 0.00 | 85 | 1008.8 |
| 20260503040957 | 1 | 267 | 4.8 | 14.5 | 0.00 | 0.36 | 0.00 | 85 | 1008.9 |
| 20260503040716 | 1 | 269 | 3.2 | 14.5 | 0.00 | 0.36 | 0.00 | 85 | 1008.9 |
| 20260503035956 | 1 | 270 | 4.8 | 12.9 | 0.00 | 0.36 | 0.36 | 85 | 1008.9 |
| 20260503035448 | 1 | 294 | 4.8 | 14.5 | 0.00 | 0.36 | 0.36 | 84 | 1008.9 |
| 20260503034947 | 1 | 319 | 4.8 | 16.1 | 0.00 | 0.36 | 0.36 | 84 | 1008.9 |
| 20260503034448 | 1 | 254 | 4.8 | 16.1 | 0.00 | 0.36 | 0.36 | 83 | 1008.9 |
| 20260503033948 | 1 | 271 | 4.8 | 16.1 | 0.00 | 0.36 | 0.36 | 84 | 1008.9 |
| 20260503033448 | 1 | 316 | 3.2 | 12.9 | 0.00 | 0.36 | 0.36 | 83 | 1008.9 |
| 20260503033207 | 1 | 271 | 3.2 | 12.9 | 0.00 | 0.36 | 0.36 | 83 | 1009.0 |
| 20260503032448 | 1 | 300 | 3.2 | 16.1 | 0.00 | 0.36 | 0.36 | 83 | 1009.0 |
| 20260503031947 | 1 | 308 | 3.2 | 16.1 | 0.00 | 0.36 | 0.36 | 83 | 1008.9 |
| 20260503031448 | 1 | 355 | 3.2 | 12.9 | 0.00 | 0.36 | 0.36 | 83 | 1009.0 |
| 20260503030946 | 1 | 310 | 3.2 | 12.9 | 0.00 | 0.36 | 0.36 | 83 | 1008.9 |
| 20260503030445 | 1 | 273 | 3.2 | 17.7 | 0.00 | 0.36 | 0.36 | 83 | 1008.9 |
| 20260503025947 | 1 | 230 | 4.8 | 17.7 | 0.00 | 0.36 | 0.36 | 83 | 1009.0 |
| 20260503025442 | 1 | 310 | 6.4 | 16.1 | 0.00 | 0.36 | 0.36 | 82 | 1009.0 |
| 20260503024943 | 1 | 321 | 6.4 | 16.1 | 0.00 | 0.36 | 0.36 | 82 | 1009.0 |
| 20260503024442 | 1 | 300 | 6.4 | 16.1 | 0.00 | 0.36 | 0.36 | 83 | 1009.0 |
| 20260503023943 | 1 | 229 | 6.4 | 19.3 | 0.00 | 0.36 | 0.36 | 85 | 1009.0 |
| 20260503023443 | 0 | 290 | 6.4 | 20.9 | 0.00 | 0.36 | 0.36 | 88 | 1009.0 |
| 20260503022943 | 0 | 284 | 6.4 | 20.9 | 0.00 | 0.36 | 0.36 | 90 | 1009.1 |
| 20260503022442 | -1 | 271 | 6.4 | 17.7 | 0.00 | 0.36 | 0.36 | 92 | 1009.1 |
| 20260503021941 | -1 | 348 | 4.8 | 17.7 | 0.00 | 0.36 | 0.36 | 92 | 1009.1 |
| 20260503021442 | -1 | 263 | 4.8 | 16.1 | 0.00 | 0.36 | 0.36 | 92 | 1009.1 |
| 20260503020942 | -1 | 252 | 3.2 | 9.7 | 0.00 | 0.36 | 0.36 | 91 | 1009.2 |
| 20260503020441 | -1 | 254 | 3.2 | 9.7 | 0.00 | 0.36 | 0.36 | 91 | 1009.2 |
| 20260503015942 | -1 | 253 | 1.6 | 9.7 | 0.00 | 0.36 | 0.36 | 91 | 1009.3 |
| 20260503015441 | -1 | 251 | 3.2 | 9.7 | 0.00 | 0.36 | 0.36 | 91 | 1009.2 |
| 20260503014942 | -1 | 252 | 3.2 | 9.7 | 0.00 | 0.36 | 0.36 | 90 | 1009.2 |
| 20260503014442 | -1 | 257 | 3.2 | 9.7 | 0.00 | 0.36 | 0.36 | 90 | 1009.3 |
| 20260503013942 | -1 | 279 | 1.6 | 4.8 | 0.00 | 0.36 | 0.36 | 89 | 1009.3 |
| 20260503013442 | 0 | 277 | 1.6 | 8.0 | 0.00 | 0.36 | 0.36 | 89 | 1009.2 |
| 20260503012941 | 0 | 321 | 1.6 | 8.0 | 0.00 | 0.36 | 0.36 | 89 | 1009.3 |
| 20260503012717 | 0 | 300 | 1.6 | 8.0 | 0.00 | 0.36 | 0.36 | 90 | 1009.3 |
| 20260503011942 | 0 | 290 | 1.6 | 8.0 | 0.00 | 0.36 | 0.36 | 89 | 1009.3 |
| 20260503011442 | 0 | 316 | 1.6 | 8.0 | 0.00 | 0.36 | 0.36 | 89 | 1009.3 |
| 20260503010442 | 0 | 326 | 1.6 | 4.8 | 0.00 | 0.36 | 0.36 | 88 | 1009.3 |
| 20260503005940 | 0 | 336 | 1.6 | 8.0 | 0.00 | 0.36 | 0.36 | 88 | 1009.2 |
| 20260503005439 | 0 | 336 | 1.6 | 8.0 | 0.00 | 0.36 | 0.36 | 87 | 1009.2 |
| 20260503004929 | 0 | 307 | 1.6 | 6.4 | 0.00 | 0.36 | 0.36 | 87 | 1009.2 |
| 20260503004422 | 0 | 291 | 1.6 | 4.8 | 0.00 | 0.36 | 0.36 | 85 | 1009.1 |
| 20260503003919 | 0 | 290 | 1.6 | 6.4 | 0.00 | 0.36 | 0.36 | 84 | 1009.2 |
| 20260503003646 | 0 | 288 | 1.6 | 9.7 | 0.00 | 0.36 | 0.36 | 84 | 1009.1 |
| 20260503003135 | 1 | 279 | 3.2 | 9.7 | 0.00 | 0.36 | 0.36 | 84 | 1009.0 |
| 20260503002417 | 1 | 277 | 3.2 | 8.0 | 0.00 | 0.36 | 0.36 | 82 | 1009.1 |
| 20260503001917 | 1 | 315 | 1.6 | 8.0 | 0.00 | 0.36 | 0.36 | 83 | 1009.0 |
| 20260503001418 | 1 | 307 | 1.6 | 8.0 | 0.00 | 0.36 | 0.36 | 82 | 1009.0 |
| 20260503000916 | 1 | 279 | 1.6 | 8.0 | 0.00 | 0.36 | 0.36 | 81 | 1009.0 |
| 20260503000415 | 2 | 308 | 1.6 | 8.0 | 0.00 | 0.36 | 0.36 | 81 | 1008.9 |
| 20260502235915 | 2 | 263 | 3.2 | 12.9 | 0.00 | 0.36 | 0.36 | 80 | 1009.0 |
| 20260502235414 | 2 | 262 | 3.2 | 12.9 | 0.00 | 0.36 | 0.36 | 79 | 1008.9 |
| 20260502234913 | 2 | 248 | 4.8 | 11.3 | 0.00 | 0.36 | 0.36 | 76 | 1009.0 |
| 20260502234413 | 2 | 266 | 3.2 | 12.9 | 0.00 | 0.36 | 0.36 | 79 | 1009.0 |
| 20260502233915 | 2 | 297 | 3.2 | 12.9 | 0.00 | 0.36 | 0.36 | 77 | 1009.0 |
| 20260502233414 | 3 | 325 | 4.8 | 9.7 | 0.00 | 0.36 | 0.36 | 75 | 1009.0 |
| 20260502233131 | 3 | 269 | 4.8 | 12.9 | 0.00 | 0.36 | 0.36 | 76 | 1009.0 |
| 20260502232402 | 3 | 317 | 4.8 | 19.3 | 0.00 | 0.36 | 0.36 | 74 | 1008.9 |
| 20260502231902 | 3 | 289 | 4.8 | 19.3 | 0.00 | 0.36 | 0.36 | 74 | 1008.8 |
| 20260502231619 | 3 | 288 | 4.8 | 16.1 | 0.00 | 0.36 | 0.36 | 74 | 1008.8 |
| 20260502230902 | 3 | 281 | 8.0 | 19.3 | 0.00 | 0.36 | 0.36 | 72 | 1008.8 |
| 20260502230402 | 3 | 263 | 9.7 | 22.5 | 0.00 | 0.36 | 0.36 | 72 | 1008.8 |
| 20260502225901 | 3 | 315 | 9.7 | 24.1 | 0.00 | 0.36 | 0.36 | 73 | 1008.7 |
| 20260502225402 | 3 | 329 | 9.7 | 24.1 | 0.00 | 0.36 | 0.36 | 73 | 1008.7 |
| 20260502224902 | 3 | 262 | 9.7 | 19.3 | 0.00 | 0.36 | 0.36 | 73 | 1008.6 |
| 20260502224401 | 3 | 317 | 6.4 | 19.3 | 0.00 | 0.36 | 0.36 | 75 | 1008.6 |
| 20260502223901 | 3 | 325 | 8.0 | 20.9 | 0.00 | 0.36 | 0.36 | 75 | 1008.6 |
| 20260502223401 | 3 | 304 | 8.0 | 20.9 | 0.00 | 0.36 | 0.36 | 77 | 1008.6 |
| 20260502222901 | 3 | 243 | 8.0 | 19.3 | 0.00 | 0.36 | 0.36 | 75 | 1008.6 |
| 20260502222401 | 3 | 288 | 8.0 | 19.3 | 0.00 | 0.36 | 0.36 | 75 | 1008.6 |
| 20260502221900 | 3 | 267 | 8.0 | 16.1 | 0.00 | 0.36 | 0.36 | 76 | 1008.6 |
| 20260502221359 | 3 | 342 | 8.0 | 16.1 | 0.00 | 0.36 | 0.36 | 75 | 1008.6 |
| 20260502220859 | 3 | 248 | 6.4 | 17.7 | 0.00 | 0.36 | 0.36 | 76 | 1008.7 |
| 20260502220358 | 3 | 291 | 8.0 | 22.5 | 0.00 | 0.36 | 0.36 | 76 | 1008.7 |
| 20260502215857 | 4 | 258 | 9.7 | 22.5 | 0.00 | 0.36 | 0.36 | 75 | 1008.7 |
| 20260502215355 | 4 | 245 | 9.7 | 22.5 | 0.00 | 0.36 | 0.36 | 75 | 1008.7 |
| 20260502215125 | 4 | 232 | 9.7 | 22.5 | 0.00 | 0.36 | 0.36 | 75 | 1008.6 |
| 20260502214355 | 5 | 265 | 9.7 | 22.5 | 0.00 | 0.36 | 0.36 | 73 | 1008.5 |
| 20260502213855 | 5 | 274 | 9.7 | 22.5 | 0.00 | 0.36 | 0.36 | 74 | 1008.5 |
| 20260502213614 | 5 | 294 | 8.0 | 20.9 | 0.00 | 0.36 | 0.36 | 74 | 1008.4 |
| 20260502212855 | 5 | 180 | 8.0 | 17.7 | 0.00 | 0.36 | 0.36 | 74 | 1008.5 |
| 20260502212355 | 5 | 294 | 8.0 | 19.3 | 0.00 | 0.36 | 0.36 | 75 | 1008.5 |
| 20260502211856 | 5 | 233 | 8.0 | 27.4 | 0.00 | 0.36 | 0.36 | 73 | 1008.4 |
| 20260502211355 | 5 | 332 | 8.0 | 27.4 | 0.00 | 0.36 | 0.36 | 73 | 1008.4 |
| 20260502210854 | 5 | 315 | 8.0 | 25.7 | 0.00 | 0.36 | 0.36 | 74 | 1008.4 |
| 20260502205846 | 5 | 292 | 8.0 | 19.3 | 0.00 | 0.36 | 0.36 | 76 | 1008.2 |
| 20260502205605 | 5 | 340 | 9.7 | 19.3 | 0.00 | 0.36 | 0.36 | 76 | 1008.2 |
| 20260502205107 | 5 | 285 | 9.7 | 19.3 | 0.00 | 0.36 | 0.36 | 75 | 1008.4 |
| 20260502204348 | 5 | 338 | 8.0 | 19.3 | 0.00 | 0.36 | 0.36 | 76 | 1008.2 |
| 20260502203847 | 5 | 313 | 8.0 | 19.3 | 0.00 | 0.36 | 0.36 | 75 | 1008.4 |
| 20260502203347 | 5 | 248 | 9.7 | 20.9 | 0.00 | 0.36 | 0.36 | 76 | 1008.4 |
| 20260502202845 | 5 | 267 | 8.0 | 20.9 | 0.00 | 0.36 | 0.36 | 75 | 1008.2 |
| 20260502202345 | 5 | 330 | 6.4 | 19.3 | 0.00 | 0.36 | 0.36 | 76 | 1008.2 |
| 20260502201846 | 5 | 0 | 6.4 | 14.5 | 0.00 | 0.36 | 0.36 | 79 | 1008.4 |
| 20260502201345 | 4 | 319 | 6.4 | 17.7 | 0.00 | 0.36 | 0.36 | 79 | 1008.4 |
| 20260502200845 | 4 | 274 | 8.0 | 24.1 | 0.00 | 0.36 | 0.36 | 78 | 1008.4 |
| 20260502200345 | 4 | 279 | 9.7 | 24.1 | 0.00 | 0.36 | 0.36 | 78 | 1008.4 |
| 20260502195844 | 4 | 285 | 9.7 | 20.9 | 0.00 | 0.36 | 0.36 | 79 | 1008.5 |
| 20260502194846 | 4 | 273 | 11.3 | 29.0 | 0.00 | 0.36 | 0.36 | 80 | 1008.5 |
| 20260502194607 | 4 | 259 | 9.7 | 24.1 | 0.00 | 0.36 | 0.36 | 80 | 1008.6 |
| 20260502193833 | 5 | 337 | 9.7 | 22.5 | 0.00 | 0.36 | 0.36 | 79 | 1008.5 |
| 20260502193327 | 5 | 246 | 11.3 | 24.1 | 0.00 | 0.36 | 0.36 | 80 | 1008.5 |
| 20260502192816 | 5 | 294 | 11.3 | 24.1 | 0.00 | 0.36 | 0.36 | 77 | 1008.5 |
| 20260502192310 | 6 | 355 | 9.7 | 22.5 | 0.00 | 0.36 | 0.36 | 78 | 1008.4 |
| 20260502191805 | 6 | 228 | 9.7 | 22.5 | 0.00 | 0.36 | 0.36 | 77 | 1008.4 |
| 20260502191301 | 6 | 232 | 9.7 | 25.7 | 0.00 | 0.36 | 0.36 | 78 | 1008.4 |
| 20260502191023 | 5 | 254 | 8.0 | 25.7 | 0.00 | 0.36 | 0.36 | 80 | 1008.4 |
| 20260502190257 | 5 | 252 | 8.0 | 20.9 | 0.00 | 0.36 | 0.36 | 81 | 1008.5 |
| 20260502185757 | 5 | 286 | 6.4 | 20.9 | 0.00 | 0.36 | 0.36 | 79 | 1008.4 |
| 20260502185257 | 5 | 325 | 6.4 | 20.9 | 0.00 | 0.36 | 0.36 | 80 | 1008.4 |